sat.trackr.live / text

‹ back to catalog

STARLINK-36429

NORAD 67356 · 2026-003Y

PAYLOAD ACTIVE UNKNOWN

§ Identity

Operator
Country
US
Launch date
2026-01-09
Launch site
AFETR
Launch vehicle
Mass (kg)
RCS (m²)

Purposes: comms

External: N2YO · Heavens-Above · Gunter

§ Orbital elements

Epoch: 2026-05-25T00:24:11.481120Z

Period
94.27 min
Inclination
43.0015°
Eccentricity
0.0001138
Mean motion
15.27593092 rev/d
Perigee alt
482.2 km
Apogee alt
483.8 km
Semi-major
6,861.1 km
B*
5.0826e-4
RAAN
156.3209°
Arg perigee
287.6225°
Mean anomaly
72.4502°
Rev number
2,049

§ Raw data

STARLINK-364291 67356U 26003Y   26145.01679955  .00013756  00000+0  50826-3 0  99932 67356  43.0015 156.3209 0001138 287.6225  72.4502 15.27593092 20491

JSON: /api/v1/satellites/67356 · /tle

For live sub-satellite position, see the globe view (requires WebGL).

§ Visibility from observer

Set your observer location to see the next 7 days of passes ≥ 10°. The values pass through the URL so the page stays shareable.

No JS? Fill the form by hand. The geolocation button needs JavaScript.